Theta_e
316 317 319 322 326 325 324 322 319 320 320 318 317 320 322 322 322 326 327 338 339 340 340 339 336 336 337 338 338 336 336 335 334 333 331 331 331 330 330 330 330 331 328 334 330 330 330 328 327
317 318 321 324 324 322 322 320 320 320 322 320 321 322 324 325 328 332 335 337 339 340 340 341 337 336 337 337 337 336 334 334 333 331 330 329 329 329 329 329 330 329 330 332 332 329 328 326 325
317 317 324 324 324 323 322 320 320 319 320 318 322 322 323 325 327 333 334 338 340 340 340 341 337 336 335 337 338 336 334 332 330 329 328 327 327 326 327 328 328 328 328 329 329 328 325 325 324
319 320 318 323 323 321 321 320 319 321 319 316 321 323 324 326 330 329 333 340 341 340 340 337 337 336 333 336 338 337 335 330 327 327 325 324 323 323 322 323 326 327 326 327 328 323 320 321 320
315 321 321 322 321 318 317 317 318 321 319 319 321 321 324 326 325 330 334 340 341 340 340 338 336 334 334 336 336 337 335 330 324 323 322 320 319 319 318 319 321 322 322 322 321 316 311 309 311
320 319 320 322 320 317 316 317 319 320 317 318 320 322 323 326 326 335 336 338 340 340 341 340 334 331 332 336 335 337 335 329 324 323 322 321 320 321 322 320 318 318 317 316 313 308 305 303 304
321 320 320 321 319 318 318 316 318 319 318 319 320 321 322 326 328 336 338 338 340 340 340 340 337 333 331 335 335 336 336 330 324 324 322 321 321 320 319 320 321 321 318 314 308 306 303 302 302
317 318 318 318 318 319 316 316 315 317 317 315 320 320 321 325 329 337 339 340 340 340 340 339 338 337 337 335 334 335 336 331 326 323 322 321 320 320 320 321 322 322 320 317 314 308 303 302 303
311 318 318 317 317 317 313 316 312 312 315 317 318 317 319 326 331 338 338 339 339 339 340 340 339 338 338 338 334 333 334 333 326 323 323 323 324 324 325 322 321 320 318 318 315 312 309 306 306
315 316 315 314 315 316 315 315 315 315 315 316 316 314 313 327 332 336 336 336 337 336 337 339 339 338 338 334 333 333 334 333 328 324 323 325 326 326 324 320 319 317 316 314 313 312 311 311 313
313 314 311 312 312 313 315 314 314 316 317 317 317 318 314 327 331 333 335 334 335 335 334 335 337 338 338 336 335 335 334 332 328 325 326 323 323 321 321 320 318 316 316 314 313 313 312 311 312
314 312 312 312 312 313 314 314 314 315 318 315 316 314 315 325 330 331 333 334 335 334 332 332 335 338 338 335 334 335 334 333 332 327 325 324 323 322 321 320 318 316 315 314 313 311 310 309 308
314 313 312 312 312 312 311 314 315 314 315 313 311 311 315 320 327 329 331 335 335 333 330 331 333 335 336 335 335 334 334 333 332 329 327 325 324 323 321 320 319 317 315 313 312 309 308 306 303
313 313 313 313 314 313 314 314 312 314 313 313 312 313 314 316 323 329 330 333 334 333 330 328 331 332 334 335 335 334 333 332 332 330 328 326 326 324 322 320 319 316 314 312 310 308 306 302 298
313 315 315 315 313 314 313 316 315 316 312 314 313 313 313 314 318 327 328 330 332 331 328 327 328 331 332 333 333 333 333 333 333 331 329 327 327 325 323 320 319 316 311 311 307 305 302 298 293
315 315 316 314 313 313 314 316 315 313 313 315 315 315 314 313 313 319 326 329 328 327 324 325 328 328 330 331 330 330 332 331 332 331 330 328 327 326 324 320 317 313 311 308 307 303 300 296 293
316 314 316 316 313 314 315 317 316 312 312 315 316 316 314 314 312 313 318 324 325 324 322 321 324 325 327 327 328 329 330 331 330 330 329 329 327 326 324 322 316 313 311 307 304 300 298 294 292
315 316 315 315 314 313 316 316 316 315 313 316 317 317 316 315 314 312 312 316 322 321 319 319 319 319 322 323 324 326 327 328 327 328 326 326 326 324 323 321 316 312 307 306 303 298 295 292 290
313 315 314 314 313 314 316 316 316 316 316 315 316 317 317 316 315 312 310 310 314 316 316 316 316 315 315 319 320 320 322 323 324 323 323 322 324 321 321 319 315 304 305 306 302 296 293 290 290
313 314 315 315 313 313 316 316 316 316 316 316 317 318 318 318 314 309 309 309 310 313 314 314 314 313 312 313 317 318 319 319 320 321 320 321 319 316 317 318 312 305 305 304 300 297 292 291 292
314 315 315 314 314 313 314 316 317 316 315 316 316 316 316 316 314 311 308 308 309 311 311 312 312 311 311 311 307 313 316 313 311 312 314 316 316 315 315 316 310 307 303 303 301 297 294 292 291
314 313 314 314 316 316 315 315 317 318 319 317 317 317 316 314 313 311 309 308 308 309 309 309 310 309 309 306 307 311 312 304 305 312 312 313 314 311 313 311 309 307 302 302 299 296 295 294 292
315 312 314 315 317 316 317 318 317 317 319 319 320 318 314 312 310 310 308 307 307 308 307 308 309 307 305 309 310 309 308 308 311 307 307 307 308 309 307 307 305 300 299 299 300 298 294 294 292
311 314 314 313 316 321 319 319 319 320 320 320 318 314 312 311 309 306 304 305 305 306 305 307 307 307 305 308 309 309 308 306 303 299 301 302 302 299 300 300 301 298 295 297 297 297 295 293 292
314 317 322 324 322 323 316 319 320 319 317 317 316 314 313 309 307 306 306 305 305 305 305 306 306 305 304 305 304 306 307 305 305 304 298 297 298 296 296 293 289 293 297 298 297 296 293 293 289
314 318 322 333 324 322 314 320 321 317 317 315 313 312 311 309 307 305 305 305 305 304 304 305 305 304 303 303 302 303 306 306 303 300 297 296 294 291 291 291 291 288 293 297 296 291 287 286 286
315 317 317 321 311 322 322 322 317 316 316 314 314 312 312 308 306 304 303 303 304 302 303 304 304 303 302 301 301 303 304 303 301 300 298 295 292 291 291 288 286 286 286 286 286 286 286 285 285
315 316 319 320 330 330 324 322 323 320 318 315 314 314 310 306 305 304 303 302 303 302 303 303 302 302 301 299 300 301 301 299 298 297 295 293 292 291 287 286 287 285 284 285 284 284 284 285 284
315 316 316 318 321 328 328 324 318 320 317 315 314 311 310 307 306 304 303 302 302 303 303 302 301 301 300 298 299 299 297 296 296 295 293 292 290 288 287 288 285 283 283 283 284 283 283 283 283
315 318 317 323 323 319 320 325 313 314 315 314 313 310 308 306 305 303 302 301 300 301 302 301 300 299 298 296 296 296 297 295 293 292 291 289 288 287 288 284 284 283 283 284 284 284 283 282 282
Wind_Speed
4 3 0 2 3 2 1 3 1 4 4 2 4 3 2 3 2 3 6 10 15 17 16 17 16 16 15 15 13 13 13 15 15 16 17 17 17 17 16 17 18 18 16 17 16 17 18 19 20
3 1 1 1 3 1 3 2 5 4 3 6 5 3 3 1 1 5 12 9 16 17 16 16 18 17 16 15 14 12 11 15 15 16 16 17 17 17 17 17 17 19 16 18 18 17 18 18 20
1 1 2 1 1 1 2 4 5 6 8 2 2 1 0 1 3 12 5 13 17 16 16 17 18 17 16 15 15 13 10 14 15 16 16 17 17 18 18 18 18 18 17 17 17 18 18 18 19
1 3 2 4 2 1 1 4 5 10 3 3 2 3 2 1 9 4 9 14 17 16 15 17 18 17 16 16 15 13 10 13 14 15 16 16 17 18 18 18 18 17 17 17 17 18 18 19 18
2 2 4 3 2 1 3 2 8 11 4 4 4 1 1 3 3 5 12 15 18 17 15 17 17 17 17 15 15 14 11 13 14 15 16 16 17 17 18 18 17 18 17 17 17 18 17 17 18
3 1 4 8 3 2 3 5 8 10 3 4 4 2 2 5 7 9 13 16 17 17 16 15 17 17 17 15 15 15 12 12 14 15 16 16 17 17 17 17 17 18 17 17 17 17 17 17 19
2 3 4 2 2 3 4 8 8 10 6 6 1 3 2 8 10 12 14 16 17 17 16 15 15 16 16 14 15 16 14 12 13 14 16 16 17 16 16 16 16 17 17 17 17 17 17 18 20
2 1 4 4 5 4 7 9 2 9 7 2 3 4 3 11 13 14 15 17 18 17 17 17 16 16 15 15 15 15 15 14 15 15 16 16 16 16 17 17 17 17 17 17 17 17 18 19 21
0 4 6 5 7 3 6 9 3 0 4 4 6 3 3 12 14 17 17 16 19 17 18 18 18 16 16 15 18 16 15 15 16 17 17 15 15 14 13 16 17 17 17 17 17 17 19 20 21
3 4 6 1 3 3 7 8 8 6 9 6 6 9 4 14 17 21 21 21 22 20 18 19 17 17 17 19 20 18 19 19 19 20 20 16 14 13 14 14 12 13 15 16 17 18 17 17 16
3 4 3 3 4 3 4 5 6 8 9 10 14 12 13 18 19 22 23 23 23 22 19 19 19 17 18 19 21 19 20 19 22 23 20 17 16 16 15 14 11 11 12 12 12 12 12 13 13
4 1 2 1 3 4 4 3 5 11 10 2 8 0 16 17 21 25 25 24 24 23 21 19 17 18 19 20 21 19 23 23 19 22 22 20 19 16 15 12 11 10 10 11 11 12 14 16 16
4 3 3 1 2 3 2 6 5 12 13 7 2 6 12 16 22 22 21 22 23 23 21 21 22 17 18 23 18 19 23 26 22 21 24 23 20 18 16 15 12 13 14 13 13 14 15 17 17
2 1 2 3 3 3 4 3 3 5 4 12 10 12 12 15 21 19 21 24 26 24 22 21 22 20 23 23 18 18 22 23 28 26 27 24 22 20 17 17 14 15 15 16 15 16 16 18 18
2 3 4 8 3 4 4 7 13 14 5 9 12 13 12 15 16 24 26 25 24 24 21 23 21 22 24 23 22 19 20 21 27 29 28 27 25 23 20 18 17 17 17 17 19 19 19 20 19
1 2 3 3 4 1 5 13 6 2 6 14 15 14 13 15 21 23 22 23 23 22 23 22 24 23 24 25 24 23 21 21 23 26 30 28 27 26 23 21 20 20 19 20 23 19 21 22 20
1 6 5 4 5 3 7 10 1 1 4 10 11 12 13 15 18 24 24 25 24 23 22 22 24 23 24 24 22 21 20 22 27 27 31 33 31 28 26 24 22 22 23 24 25 21 21 26 22
6 5 4 6 3 4 7 19 14 11 10 15 16 14 15 16 18 22 25 25 24 24 23 22 21 19 22 24 22 20 21 23 24 24 30 32 32 30 28 25 24 24 27 30 27 28 23 25 26
2 3 8 5 2 4 14 17 21 17 16 19 19 21 21 21 15 14 18 22 22 23 24 24 23 22 22 25 23 20 22 22 23 23 26 31 30 30 30 29 27 27 31 33 34 33 31 26 26
7 11 14 11 5 5 12 17 20 21 21 20 20 21 23 18 8 12 18 24 28 28 27 26 25 24 23 20 24 24 24 23 24 24 24 26 27 29 28 28 30 33 33 35 36 38 28 24 23
12 15 11 9 5 5 8 14 11 13 13 19 23 25 21 17 12 12 17 23 25 27 29 28 26 23 22 19 19 22 21 18 21 22 24 25 26 28 30 29 31 35 37 40 40 40 34 24 19
15 11 9 7 3 8 2 10 12 12 17 11 17 14 12 11 10 10 14 18 24 25 22 23 23 23 22 23 21 27 26 15 18 24 24 24 25 27 28 29 30 34 37 39 41 40 21 21 19
3 5 7 3 7 5 10 7 6 5 11 17 18 5 3 1 3 7 10 13 16 20 21 22 22 21 23 25 25 24 21 20 20 20 22 23 25 26 27 28 29 31 34 39 41 40 26 20 17
13 6 4 2 2 9 13 10 14 9 14 13 7 3 5 2 2 1 3 7 12 16 19 21 22 22 22 26 25 27 24 22 19 19 22 23 25 26 28 29 29 31 37 37 39 36 27 21 18
4 8 3 4 5 10 2 9 20 8 7 8 7 5 2 1 0 1 4 7 10 15 17 19 20 20 20 21 21 24 26 22 24 25 22 23 27 29 30 30 29 31 34 36 34 32 25 22 17
12 10 7 7 6 7 3 9 6 13 11 9 8 6 5 6 4 4 4 7 10 12 15 18 21 20 20 20 20 22 24 24 23 21 20 26 25 27 31 32 31 31 33 34 33 30 26 22 20
8 11 7 6 2 4 10 18 10 12 14 9 10 7 7 4 3 4 6 7 9 11 15 18 20 20 20 19 21 23 24 24 23 24 26 27 26 31 30 28 29 29 30 32 32 32 29 24 22
10 10 5 5 6 9 13 10 12 6 14 11 10 7 3 3 4 5 7 10 10 12 15 17 19 20 19 19 21 23 23 23 22 24 27 30 30 31 31 29 28 28 30 29 27 28 28 27 24
6 8 5 3 5 6 13 13 5 11 7 10 8 5 6 7 7 7 8 11 12 13 16 18 20 22 23 24 24 24 23 24 25 25 27 29 31 34 35 34 34 33 32 29 28 26 24 26 26
10 14 18 7 7 4 3 20 4 5 6 9 8 6 7 7 8 8 10 11 12 15 17 19 20 21 22 22 23 25 27 28 28 28 28 30 32 35 35 35 34 34 31 29 28 27 25 25 26
Wind_Direction
326 315 351 246 229 272 67 121 95 164 181 94 109 211 249 351 276 6 134 151 151 154 157 159 162 160 152 145 131 118 113 102 97 95 92 91 91 89 87 87 92 89 83 87 86 82 78 75 73
321 257 222 270 260 259 95 141 193 152 93 128 133 161 206 121 86 111 142 160 156 155 155 160 165 163 155 148 138 127 118 106 102 98 96 95 94 93 90 89 89 89 87 87 88 83 77 75 77
222 159 251 188 251 290 60 183 143 129 136 147 163 268 291 108 140 149 141 160 159 159 157 163 165 164 159 151 144 139 125 115 109 105 101 98 96 93 92 91 91 90 91 91 89 85 81 79 78
216 178 135 249 183 213 302 147 152 150 193 238 267 206 187 194 146 155 154 158 163 163 161 165 167 168 164 158 154 150 137 124 115 110 106 103 100 98 96 94 96 96 94 90 87 86 83 80 83
49 216 204 222 214 219 228 180 175 171 160 170 185 166 182 182 180 170 167 165 170 166 165 166 171 171 167 164 162 155 143 132 123 116 110 106 102 99 98 99 102 99 97 94 92 88 86 87 89
168 272 214 217 199 190 223 179 175 188 172 144 210 197 162 159 177 172 170 173 175 171 169 171 174 174 172 169 166 162 152 141 130 123 115 109 106 104 104 105 104 102 100 99 94 93 92 92 92
217 211 218 197 219 231 191 163 199 191 196 202 154 229 119 187 179 168 168 173 176 177 173 173 173 176 176 173 170 168 162 154 140 129 120 115 111 108 105 102 99 98 98 97 96 97 94 94 94
134 182 170 213 212 225 156 173 229 201 204 102 203 230 189 181 169 165 167 173 177 180 180 178 177 175 176 178 178 175 172 163 151 141 129 122 117 116 115 110 110 106 103 102 103 102 102 100 100
158 212 222 215 187 180 153 192 157 311 189 200 196 253 85 153 161 168 173 181 184 188 190 184 178 179 179 179 182 180 178 170 158 149 141 131 130 125 117 130 120 114 110 107 104 102 103 103 106
208 224 220 206 188 193 177 205 169 195 197 215 223 211 169 170 176 182 187 188 190 190 190 191 187 187 185 189 182 183 177 178 173 165 161 152 145 142 136 136 129 121 117 112 108 105 101 94 96
174 240 175 208 205 204 187 203 188 220 223 222 217 209 184 185 191 197 199 197 194 193 193 189 197 195 190 187 186 181 183 180 181 180 180 177 166 159 151 137 129 121 113 108 103 96 94 99 103
210 194 197 125 184 167 194 145 200 229 234 313 248 179 185 193 199 203 204 201 196 195 195 196 196 196 198 200 197 191 192 187 183 187 188 185 182 176 172 163 150 140 133 127 113 103 105 101 102
218 170 198 248 211 230 166 220 246 250 243 234 246 211 207 209 211 211 209 205 200 199 196 199 197 193 197 200 201 202 203 200 193 189 194 196 193 190 186 177 167 160 150 138 123 117 113 107 102
107 214 260 245 220 228 235 237 201 242 268 237 230 233 226 221 215 208 208 206 203 200 199 199 199 199 204 200 201 203 205 207 205 201 200 200 202 198 192 185 176 167 161 151 141 131 123 113 109
94 256 264 228 217 219 204 237 231 248 235 251 240 243 240 231 219 216 214 210 205 203 198 201 200 203 207 209 208 205 210 210 211 209 203 205 203 206 197 192 184 173 163 159 150 134 127 118 112
213 236 248 136 179 115 217 266 251 183 236 253 250 244 241 236 222 224 219 213 208 201 199 199 204 206 208 211 213 212 214 219 219 217 212 211 209 207 203 196 185 176 172 163 154 142 135 123 118
221 254 224 300 192 143 219 281 188 202 249 269 261 249 242 242 225 224 216 213 205 203 200 201 204 207 208 208 207 209 212 213 216 216 213 212 211 208 202 201 189 182 173 165 157 152 144 133 124
210 218 220 247 156 205 224 259 263 249 263 268 267 259 253 244 233 224 215 212 209 203 202 202 202 200 205 206 202 201 205 205 209 218 213 208 210 205 201 197 194 184 175 167 165 155 146 137 131
138 210 255 244 194 221 246 261 271 276 267 263 261 259 254 250 245 228 214 209 206 205 202 201 198 199 199 197 196 196 197 199 202 205 215 211 213 203 198 197 192 179 179 177 169 160 147 141 140
232 252 258 280 270 228 275 263 269 266 256 254 259 258 256 263 244 209 213 206 204 203 204 201 202 199 201 203 203 205 200 202 203 203 205 213 211 209 203 200 193 190 183 175 176 170 151 151 160
227 234 243 258 318 229 286 271 236 267 258 255 256 255 266 268 260 232 214 209 207 205 203 202 201 200 200 196 196 199 197 200 198 198 203 205 205 208 206 204 201 192 187 181 184 179 171 164 185
245 212 221 244 268 274 324 285 269 266 267 252 254 247 253 253 249 255 226 212 208 209 204 203 200 199 198 197 195 199 196 186 201 200 199 201 205 206 209 204 201 197 190 192 188 183 184 177 179
235 142 182 187 230 305 232 268 247 228 250 256 258 240 220 206 245 235 222 217 209 202 201 200 199 198 201 200 202 199 203 204 203 200 199 199 200 205 205 203 197 193 194 198 196 191 197 186 193
140 101 81 90 218 258 247 227 276 210 230 247 269 189 151 329 327 222 166 181 192 194 199 198 198 198 201 203 205 207 203 203 193 193 194 198 196 193 195 196 197 196 201 203 199 196 201 198 195
198 164 210 228 203 257 96 212 249 292 220 242 230 182 254 166 80 230 174 175 188 189 194 195 195 195 194 195 203 207 211 208 203 201 192 190 194 194 192 192 192 195 199 195 193 195 204 197 188
190 196 210 241 230 277 129 235 252 234 269 233 229 251 250 255 237 216 180 178 186 190 194 194 194 195 192 192 200 205 212 214 211 206 204 202 197 195 194 194 197 195 193 192 191 188 183 174 166
182 217 248 268 102 283 252 258 253 232 240 237 236 239 234 194 178 168 165 178 185 192 196 197 197 197 194 195 203 210 214 213 211 211 210 203 201 198 194 192 191 187 183 180 178 175 167 159 152
214 149 175 213 229 244 253 264 249 232 234 228 222 208 173 156 177 155 172 183 188 191 195 198 201 202 194 195 203 208 212 214 212 211 211 210 204 195 186 186 187 186 179 174 170 166 160 157 151
170 201 219 228 222 248 275 266 199 238 189 188 170 172 178 192 190 182 189 188 192 193 194 199 200 199 195 196 199 202 204 209 214 215 213 211 203 192 186 188 186 180 176 172 169 164 159 156 151
249 216 195 201 202 238 292 266 124 202 181 167 183 184 188 199 192 184 187 186 193 198 198 200 203 205 204 201 199 200 204 206 207 208 209 208 200 193 192 187 185 183 179 174 174 169 165 162 158